[Date Prev][Date Next][Thread Prev][Thread Next] - [Date Index][Thread Index][Author Index]

2 Line ISS Keps 2-17



ISS
1 25544U 98067A   06048.41057870  .00011335  00000-0  80169-4 0  3670
2 25544 051.6420 083.5080 0007484 291.9870 253.6691 15.74547456414282
----
Via the sarex mailing list at AMSAT.ORG courtesy of AMSAT-NA.
To unsubscribe, send "unsubscribe sarex" to Majordomo@amsat.org



AMSAT Top AMSAT Home